Tracking 29892 objects as of 21-Nov-2024
HD Live streaming from Space Station
objects crossing your sky now

STARLINK-5256

Track STARLINK-5256 now!
10-day predictions
STARLINK-5256 is classified as:


NORAD ID: 54175
Int'l Code: 2022-141U
Perigee: 545.9 km
Apogee: 547.9 km
Inclination: 53.2 °
Period: 95.4 minutes
Semi major axis: 6917 km
RCS: Unknown
Launch date: October 28, 2022
Source: United States (US)
Launch site: AIR FORCE WESTERN TEST RANGE (AFWTR)
Your satellite tracking list
Your tracking list is empty




NASA's NSSDC Master Catalog

Two Line Element Set (TLE):
1 54175U 22141U   24325.05443745  .00000904  00000-0  74862-4 0  9994
2 54175  53.2173 334.8526 0001473  91.8884 268.2277 15.08840396114205
Source of the keplerian elements: AFSPC